SCP
0 0 0 0 0 1 1 1 1 1 1 1 1 1 1 0 0 0 0 0 0 0 0 0 0 0 0 0 0 0 0 0 0 0 0 0 0 0 0 0 0 0 0
0 0 0 0 1 1 1 1 1 1 1 1 1 1 1 1 0 0 0 0 0 0 0 0 0 0 0 0 0 0 0 0 0 0 0 0 0 0 0 0 0 0 0
0 0 0 1 1 1 1 1 2 2 2 2 2 1 1 1 0 0 0 0 0 0 0 0 0 0 0 0 0 0 0 0 0 0 0 0 0 0 0 0 0 0 0
0 0 1 1 2 2 2 2 2 2 2 2 2 1 1 1 1 0 0 0 0 0 0 0 0 0 0 0 0 0 0 0 0 0 0 0 0 0 0 0 0 0 0
0 1 1 2 2 2 2 2 2 2 2 1 1 1 1 1 0 0 0 0 0 0 0 0 0 0 0 0 0 0 0 0 0 0 0 0 0 0 0 0 0 0 0
1 1 2 2 2 2 2 2 2 1 1 1 1 1 1 1 0 0 0 0 0 0 0 0 0 0 0 0 0 0 0 0 0 0 0 0 0 0 0 0 0 0 0
1 1 1 2 2 2 2 1 1 1 1 0 0 0 0 0 0 0 0 0 0 0 0 0 0 0 0 0 0 0 0 0 0 0 0 0 0 0 0 0 0 0 0
0 1 1 1 1 1 1 1 1 0 0 0 0 0 0 0 0 0 0 0 0 0 0 0 0 0 0 0 0 0 0 0 0 0 0 0 0 0 0 0 0 0 0
0 0 0 1 0 0 0 0 0 0 0 0 0 0 0 0 0 0 0 0 0 0 0 0 0 0 0 0 0 0 0 0 0 0 0 0 0 0 0 0 0 0 0
0 0 0 0 0 0 0 0 0 0 0 0 0 0 0 0 0 0 0 0 0 0 0 0 0 0 0 0 0 0 0 0 0 0 0 0 0 0 0 0 0 0 0
0 0 0 0 0 0 0 0 0 0 0 0 0 0 0 0 0 0 0 0 0 0 0 0 0 0 0 0 0 0 0 0 0 0 0 0 0 0 0 0 0 0 0
0 0 0 0 0 0 0 0 0 0 0 0 0 0 0 0 0 0 0 0 0 0 0 0 0 0 0 0 0 0 0 0 0 0 0 0 0 0 0 0 0 0 0
0 0 0 0 0 0 0 0 0 0 0 0 0 0 0 0 0 0 0 0 0 0 0 0 0 0 0 0 0 0 0 0 0 0 0 0 0 0 0 0 0 0 0
0 0 0 0 0 0 0 0 0 0 0 0 0 0 0 0 0 0 0 0 0 0 0 0 0 0 0 0 0 0 0 0 0 0 0 0 0 0 0 0 0 0 0
0 0 0 0 0 0 0 0 0 0 0 0 0 0 0 0 0 0 0 0 0 0 0 0 0 0 0 0 0 0 0 0 0 0 0 0 0 0 0 0 0 0 0
0 0 0 0 0 0 0 0 0 0 0 0 0 0 0 0 0 0 0 0 0 0 0 0 0 0 0 0 0 0 0 0 0 0 0 0 0 0 0 0 0 0 0
0 0 0 0 0 0 0 0 0 0 0 0 0 0 0 0 0 0 0 0 0 0 0 0 0 0 0 0 0 0 0 0 0 0 0 0 0 0 0 0 0 0 0
0 0 0 0 0 0 0 0 0 0 0 0 0 0 0 0 0 0 0 0 0 0 0 0 0 0 0 0 0 0 0 0 0 0 0 0 0 0 0 0 0 0 0
-0 -0 -0 0 0 0 0 0 0 0 0 0 0 0 0 0 0 0 0 0 0 0 0 0 0 0 0 0 0 0 0 0 0 0 0 0 0 0 0 0 0 0 0
0 -0 -0 0 0 0 0 0 0 0 0 0 0 0 0 0 0 0 0 0 0 0 0 0 0 0 0 0 0 0 0 0 0 0 0 0 0 0 0 0 0 0 0
0 0 0 0 0 0 0 0 0 0 0 0 0 0 0 0 0 0 0 0 0 0 0 0 0 0 0 0 0 0 0 0 0 0 0 0 0 0 0 0 0 0 0
0 0 0 0 0 0 0 0 0 0 0 0 0 0 0 0 0 0 0 0 0 0 0 0 0 0 0 0 0 0 0 0 0 0 0 0 0 0 0 0 0 0 0
0 0 0 0 0 0 0 0 0 0 0 0 0 0 0 0 0 0 0 0 0 0 0 0 0 0 0 0 0 0 0 0 0 0 0 0 0 0 0 0 0 0 0
0 0 0 0 0 0 0 0 0 0 0 0 0 0 0 0 0 0 0 0 0 0 0 0 0 0 0 0 0 0 0 0 0 0 0 0 0 0 0 0 0 0 0
0 0 0 0 0 0 0 0 0 0 0 0 0 0 0 0 0 0 0 0 0 0 0 0 0 0 0 0 0 0 0 0 0 0 0 0 0 0 0 0 0 0 0
0 0 0 0 0 0 0 0 0 0 0 0 0 0 0 0 0 0 0 0 0 0 0 0 0 0 0 0 0 0 0 0 0 0 0 0 0 0 0 0 0 0 0
Wind_Speed
8 7 11 15 16 14 14 13 11 11 9 7 6 5 5 4 3 4 5 5 5 5 5 4 5 5 5 6 6 4 4 2 2 4 3 3 2 3 3 4 4 4 3
6 5 7 11 14 14 13 12 11 11 10 7 6 4 4 3 3 3 4 5 5 5 5 6 5 5 4 6 6 5 4 2 2 4 3 1 2 1 1 3 4 4 3
7 5 6 9 11 11 12 10 10 9 8 7 5 4 3 2 1 2 3 5 5 5 5 5 5 5 5 6 6 7 7 4 2 3 5 4 3 2 1 3 3 4 3
5 6 8 9 10 9 9 9 9 9 8 8 7 7 5 4 5 4 3 4 4 5 6 6 6 5 4 6 7 6 5 6 4 2 2 3 4 3 1 1 2 3 4
6 8 11 12 11 11 10 8 9 8 7 7 7 6 4 3 2 2 3 4 4 4 5 6 5 6 5 6 6 5 5 5 5 4 3 2 1 2 3 2 2 2 2
4 8 9 12 11 9 9 7 8 6 6 7 6 6 6 4 3 3 3 3 2 3 5 5 6 6 5 6 6 6 7 5 5 4 4 4 4 3 3 2 2 3 3
5 6 8 10 10 10 9 7 7 6 6 6 5 5 5 5 5 4 4 3 2 2 3 4 5 5 5 6 6 6 6 7 7 6 4 4 4 4 4 3 1 2 2
12 7 4 6 9 10 10 9 8 6 5 5 4 4 4 3 3 4 3 3 3 2 2 3 4 4 5 5 5 4 6 5 6 6 6 4 4 4 4 4 3 2 2
13 10 7 3 2 5 7 7 7 6 5 4 3 3 4 4 3 3 3 2 2 2 2 3 3 3 3 4 5 4 5 5 6 6 6 5 4 4 4 4 4 5 4
11 9 5 4 3 2 3 5 6 6 5 5 4 4 4 5 4 4 3 3 2 2 2 2 3 3 3 3 3 3 3 4 5 5 6 6 4 5 4 4 4 4 4
8 6 4 5 6 3 1 3 5 5 5 5 4 5 4 4 4 4 4 4 3 3 3 3 3 3 3 3 3 3 3 4 4 4 6 7 6 5 5 4 4 3 3
8 6 4 5 6 5 2 4 5 5 4 4 4 4 4 4 4 4 4 4 4 4 3 3 3 3 3 3 3 3 3 3 4 4 4 5 5 6 5 5 4 3 3
9 7 4 6 7 4 3 4 4 5 4 4 4 4 3 3 3 4 4 4 4 4 4 4 4 4 3 3 3 3 3 3 3 3 4 4 5 6 5 6 5 3 3
10 8 5 5 5 4 3 3 4 4 4 4 4 3 2 2 3 3 3 4 4 5 5 5 5 5 4 4 4 4 3 3 3 3 3 3 4 5 5 5 5 5 4
12 11 9 7 6 6 5 3 1 1 2 3 2 2 1 1 2 3 3 4 4 5 5 5 5 5 4 5 5 5 5 4 3 3 3 3 5 6 5 4 5 5 4
12 11 10 9 9 8 8 7 7 5 5 6 4 2 1 1 2 3 3 3 3 3 4 5 5 5 6 8 11 8 5 5 5 4 4 4 5 8 9 9 9 8 6
11 10 9 8 8 8 8 9 8 8 8 7 5 3 2 2 2 1 1 1 2 2 3 4 5 6 7 10 12 13 6 5 5 5 4 4 5 8 5 7 10 9 11
9 8 7 6 6 6 7 7 8 8 7 7 6 5 4 3 3 3 3 2 1 1 2 3 4 5 7 11 11 12 7 5 5 5 5 6 5 5 7 6 5 6 7
5 4 4 4 5 6 6 7 7 6 6 6 5 5 4 4 4 4 4 2 2 1 1 2 3 4 6 9 10 9 4 3 4 4 4 5 5 8 9 6 6 5 5
4 4 4 5 5 4 5 7 6 5 5 4 4 4 4 4 4 4 3 2 2 2 2 1 1 2 4 6 7 8 3 3 2 2 2 5 6 6 7 6 5 6 5
3 2 3 3 2 2 4 5 4 4 3 3 4 4 4 4 4 4 3 3 3 3 3 2 2 1 2 3 4 7 3 3 3 2 1 1 4 5 5 5 4 6 4
4 1 1 1 1 1 3 4 4 3 2 3 4 4 5 5 5 5 5 5 5 4 4 4 4 3 2 1 3 6 5 4 3 2 1 1 2 2 3 3 4 4 2
5 2 1 1 1 1 1 2 3 3 3 3 3 3 4 5 5 6 6 5 6 5 4 4 4 3 3 3 3 3 3 3 2 1 2 2 3 2 1 1 1 2 2
5 3 1 1 2 2 0 1 2 3 4 3 2 2 3 4 5 5 5 5 6 6 5 5 4 3 4 4 3 2 2 2 2 1 2 3 3 1 1 1 1 1 1
5 3 1 1 2 2 1 1 2 4 4 2 1 1 2 2 3 4 5 5 5 5 4 3 3 3 3 5 4 2 1 1 1 2 2 1 1 0 0 0 0 0 1
5 4 3 2 3 3 3 2 1 3 3 2 1 0 0 1 1 2 3 5 5 8 9 8 5 4 5 5 5 5 4 2 3 3 2 1 1 0 0 0 0 0 1
Wind_Direction
249 226 194 183 179 178 179 178 173 171 162 160 162 164 179 184 189 194 192 190 187 184 186 197 193 185 180 177 160 143 141 129 120 93 65 28 61 137 164 162 159 168 164
270 253 190 176 176 176 177 176 173 168 165 165 162 157 150 167 187 193 193 197 193 190 194 197 195 188 181 176 168 146 137 139 136 127 110 56 3 8 149 170 175 178 169
237 211 174 167 162 164 168 167 159 151 148 144 126 109 94 90 136 204 210 209 200 195 197 197 197 194 182 181 179 161 148 154 162 147 144 152 199 246 272 211 196 179 176
216 167 145 135 131 129 126 129 129 131 136 140 148 153 162 175 197 197 207 214 204 199 196 190 192 192 189 186 187 175 162 151 160 165 156 148 153 152 198 279 250 210 192
178 150 137 126 118 116 114 117 117 122 131 137 148 151 154 174 178 184 202 213 211 207 199 192 190 189 192 194 191 179 171 165 165 163 154 140 139 134 146 202 241 256 232
117 125 119 116 112 111 113 116 120 128 137 139 146 154 162 170 174 193 207 214 205 203 201 195 197 194 192 194 194 184 182 186 177 172 162 156 158 170 154 164 207 220 239
44 102 117 121 123 124 126 135 143 144 148 146 156 170 175 177 189 200 203 199 199 206 203 191 196 197 196 192 187 186 189 187 187 184 181 170 167 154 148 146 186 220 243
15 23 82 117 133 144 150 157 156 155 157 159 175 187 181 171 189 199 188 189 195 208 199 185 191 198 194 190 184 189 196 190 196 199 188 178 180 166 161 158 157 185 225
10 11 11 23 144 153 157 160 157 155 163 164 167 178 168 163 170 168 163 170 183 182 161 159 166 178 182 184 180 194 202 196 199 200 193 189 186 178 172 165 167 171 191
1 1 358 324 292 215 179 166 161 167 168 160 157 158 161 163 160 148 154 158 158 140 133 133 137 141 151 167 177 188 191 192 199 196 195 197 192 183 175 176 179 177 175
333 323 325 302 296 292 232 194 173 172 172 166 161 156 162 161 154 154 168 166 160 157 156 155 147 147 147 149 158 173 171 185 197 200 201 205 191 182 179 173 172 179 168
314 296 267 261 270 273 251 215 192 184 183 166 161 173 169 161 165 173 182 179 175 177 178 171 167 169 163 156 157 165 166 181 195 199 200 204 192 183 175 170 173 178 174
339 321 305 268 265 277 265 233 206 197 182 166 164 177 171 170 188 195 197 194 189 191 190 185 192 195 185 177 174 167 166 178 189 192 194 193 183 178 172 168 171 176 180
6 358 341 314 300 320 315 262 220 201 176 166 161 164 156 200 221 224 212 206 199 199 202 204 207 204 197 191 187 179 176 181 187 186 185 178 176 173 169 170 171 169 171
18 18 15 13 17 19 14 4 358 106 140 121 98 77 84 242 239 230 225 221 212 210 208 209 214 208 201 204 195 190 188 187 192 195 194 193 194 193 187 179 173 169 174
16 19 24 29 30 32 35 39 43 54 83 84 71 74 81 297 272 257 246 237 236 230 210 209 211 211 218 212 200 192 193 191 195 204 209 215 218 218 216 210 197 186 185
11 16 22 29 34 37 45 47 46 53 62 70 68 53 50 19 335 319 328 286 266 244 226 219 212 217 227 222 208 200 189 193 201 205 207 222 224 221 221 229 227 220 216
8 12 21 35 43 50 55 53 50 56 59 56 51 41 40 29 12 14 6 348 327 272 238 233 226 224 232 228 215 201 190 196 207 209 209 218 233 221 210 213 222 229 231
356 9 27 50 49 46 52 59 53 52 53 45 39 30 31 32 25 15 356 341 332 315 281 252 230 227 244 231 215 190 172 192 211 220 217 214 225 235 219 205 220 236 245
350 16 33 49 50 39 51 56 44 42 40 35 33 28 33 37 22 2 346 335 327 312 313 312 258 228 240 237 215 180 163 179 195 227 242 223 219 230 210 195 204 227 242
333 19 51 52 38 42 59 50 29 11 353 22 36 32 28 28 18 3 355 351 356 6 9 13 9 357 237 232 197 168 160 173 171 184 226 248 217 213 206 194 202 226 229
320 344 38 19 348 47 68 42 3 334 354 39 45 34 25 22 21 17 12 12 17 23 19 24 22 13 8 92 166 164 163 158 155 169 186 212 177 171 187 197 218 230 211
307 302 270 277 312 338 80 29 335 347 44 65 58 41 35 31 28 29 23 19 18 21 16 21 24 16 16 27 59 114 136 133 135 164 176 171 151 121 119 224 196 147 138
312 306 308 264 275 291 276 324 346 34 75 81 74 51 49 40 35 33 29 30 21 17 17 21 23 24 22 19 21 43 70 85 88 82 100 109 102 82 358 8 50 115 158
313 308 282 242 229 219 234 292 50 79 86 86 74 56 62 71 57 50 38 31 28 18 19 19 24 28 26 5 12 51 65 90 137 112 91 83 72 16 349 335 294 149 119
318 313 294 256 224 208 221 240 117 115 113 94 61 9 55 99 112 93 61 36 35 34 42 46 47 36 30 22 37 42 43 64 120 109 95 85 77 76 237 189 71 84 114